Volver al catálogo

SL-8 R/B

ActivoLEO
NORAD 21015·ROCKET BODY·🇷🇺 Russia

Lanzado Dec 10, 1990 desde Plesetsk Cosmodrome

Loading…

Próximos Pases (próximas 24 horas)

TLE

ActualizadoSource: Space-Track

Época: Sep 14, 2026, 21:48 UTC

1 21015U 90111B   26257.90886942  .00000230  00000-0  85476-4 0  9998
2 21015  74.0488  60.1922 0021989 210.9303 149.0557 14.37349488970692

Sigue SL-8 R/B en tiempo real con AllMySat

Download on the App Store